K0SNA Weather Reports


Display with metric or nautical units.
time (UTC)temp
F
wind
direction
speed
MPH
gust
MPH
rain 1hr
in
rain 24hr
in
rain mn
in
humidity
%
barometer
mb
20221205115644 25 214 0.0 0.0 0.00 0.00 0.00 80 1008.9
20221205115142 25 214 0.0 0.0 0.00 0.00 0.00 80 1008.8
20221205114641 24 214 0.0 1.0 0.00 0.00 0.00 82 1009.0
20221205114139 24 214 1.0 2.0 0.00 0.00 0.00 82 1008.9
20221205113638 24 213 0.0 0.0 0.00 0.00 0.00 82 1008.5
20221205113137 25 213 0.0 0.0 0.00 0.00 0.00 81 1008.5
20221205112637 25 213 0.0 0.0 0.00 0.00 0.00 81 1008.4
20221205112135 25 213 0.0 0.0 0.00 0.00 0.00 81 1008.4
20221205111633 25 213 0.0 0.0 0.00 0.00 0.00 80 1008.5
20221205111132 25 213 0.0 0.0 0.00 0.00 0.00 80 1008.6
20221205110632 25 213 0.0 0.0 0.00 0.00 0.00 80 1008.4
20221205110131 25 213 0.0 0.0 0.00 0.00 0.00 79 1008.5
20221205105631 26 214 0.0 0.0 0.00 0.00 0.00 78 1008.6
20221205105129 25 214 0.0 0.0 0.00 0.00 0.00 79 1008.7
20221205104629 26 214 0.0 0.0 0.00 0.00 0.00 78 1008.9
20221205104127 26 214 0.0 0.0 0.00 0.00 0.00 78 1009.0
20221205103625 26 214 0.0 2.0 0.00 0.00 0.00 78 1008.9
20221205103123 26 214 0.0 0.0 0.00 0.00 0.00 78 1008.8
20221205102623 26 214 0.0 1.0 0.00 0.00 0.00 76 1008.7
20221205102123 26 214 1.0 1.0 0.00 0.00 0.00 75 1008.6
20221205101622 26 214 0.0 1.0 0.00 0.00 0.00 76 1008.3
20221205101122 26 214 1.0 1.0 0.00 0.00 0.00 77 1008.5
20221205100622 27 215 1.0 2.0 0.00 0.00 0.00 75 1008.5
20221205100121 27 193 0.0 0.0 0.00 0.00 0.00 75 1008.5
20221205095620 27 193 1.0 2.0 0.00 0.00 0.00 75 1008.4
20221205095120 27 200 1.0 1.0 0.00 0.00 0.00 75 1008.5
20221205094618 27 233 1.0 2.0 0.00 0.00 0.00 74 1008.5
20221205094116 27 221 0.0 2.0 0.00 0.00 0.00 74 1008.3
20221205093614 27 212 1.0 3.0 0.00 0.00 0.00 74 1008.6
20221205093112 27 217 1.0 2.0 0.00 0.00 0.00 74 1008.5
20221205092612 27 208 1.0 3.0 0.00 0.00 0.00 73 1008.2
20221205092111 27 212 1.0 1.0 0.00 0.00 0.00 73 1008.2
20221205091610 27 211 1.0 1.0 0.00 0.00 0.00 73 1008.0
20221205091109 27 210 1.0 1.0 0.00 0.00 0.00 73 1007.9
20221205090608 27 209 0.0 0.0 0.00 0.00 0.00 73 1007.9
20221205090107 27 209 0.0 1.0 0.00 0.00 0.00 73 1007.6
20221205085607 27 209 0.0 0.0 0.00 0.00 0.00 73 1007.9
20221205085106 27 209 0.0 0.0 0.00 0.00 0.00 73 1008.0
20221205084604 28 235 1.0 2.0 0.00 0.00 0.00 72 1008.1
20221205084103 28 217 0.0 0.0 0.00 0.00 0.00 73 1008.1
20221205083601 28 218 1.0 2.0 0.00 0.00 0.00 72 1007.9
20221205083101 28 217 0.0 0.0 0.00 0.00 0.00 72 1007.9
20221205082558 27 221 1.0 2.0 0.00 0.00 0.00 73 1007.8
20221205082058 27 204 1.0 2.0 0.00 0.00 0.00 74 1007.8
20221205081558 26 195 1.0 2.0 0.00 0.00 0.00 74 1007.6
20221205081058 26 194 1.0 2.0 0.00 0.00 0.00 75 1007.7
20221205080557 26 194 1.0 1.0 0.00 0.00 0.00 74 1007.6
20221205080056 26 194 1.0 2.0 0.00 0.00 0.00 75 1007.6
20221205075554 26 207 0.0 0.0 0.00 0.00 0.00 74 1007.4
20221205075054 26 207 0.0 0.0 0.00 0.00 0.00 73 1007.6
20221205074553 27 208 0.0 0.0 0.00 0.00 0.00 73 1007.8
20221205074050 26 198 1.0 1.0 0.00 0.00 0.00 74 1007.8
20221205073549 26 197 1.0 2.0 0.00 0.00 0.00 76 1007.6
20221205073049 25 196 1.0 1.0 0.00 0.00 0.00 76 1007.7
20221205072547 24 192 1.0 2.0 0.00 0.00 0.00 80 1007.8
20221205072046 23 189 1.0 2.0 0.00 0.00 0.00 80 1007.7
20221205071545 23 189 1.0 2.0 0.00 0.00 0.00 80 1007.5
20221205071045 23 189 0.0 0.0 0.00 0.00 0.00 80 1007.4
20221205070543 23 189 0.0 0.0 0.00 0.00 0.00 80 1007.4
20221205070043 23 189 0.0 0.0 0.00 0.00 0.00 80 1007.7
20221205065541 23 189 0.0 0.0 0.00 0.00 0.00 79 1007.8
20221205065044 24 189 0.0 0.0 0.00 0.00 0.00
20221205065039 24 189 0.0 0.0 0.00 0.00 0.00 77 1007.6
20221205064539 24 189 0.0 0.0 0.00 0.00 0.00 77 1007.5
20221205064037 25 189 0.0 0.0 0.00 0.00 0.00 76 1007.4
20221205063536 25 189 0.0 0.0 0.00 0.00 0.00 76 1007.5
20221205063036 26 189 0.0 0.0 0.00 0.00 0.00 75 1007.8
20221205062535 26 189 0.0 0.0 0.00 0.00 0.00 75 1007.7
20221205062035 25 189 0.0 0.0 0.00 0.00 0.00 77 1007.6
20221205061535 24 189 0.0 0.0 0.00 0.00 0.00 76 1007.8
20221205061033 25 189 0.0 1.0 0.00 0.00 0.00 76 1007.8
20221205060533 25 189 1.0 2.0 0.00 0.00 0.00 76 1007.8
20221205060032 26 189 0.0 0.0 0.00 0.00 0.00 73 1007.6
20221205055531 25 189 0.0 0.0 0.00 0.00 0.00 75 1007.7
20221205055030 26 189 0.0 0.0 0.00 0.00 0.00 75 1007.8
20221205054528 26 189 0.0 0.0 0.00 0.00 0.00 74 1007.6
20221205054027 26 189 0.0 0.0 0.00 0.00 0.00 73 1007.6
20221205053525 26 189 0.0 0.0 0.00 0.00 0.00 72 1007.7
20221205053025 26 189 0.0 0.0 0.00 0.00 0.00 72 1007.6
20221205052525 27 189 0.0 0.0 0.00 0.00 0.00 71 1007.7
20221205052023 28 190 0.0 0.0 0.00 0.00 0.00 70 1007.7
20221205051524 28 189 0.0 0.0 0.00 0.00 0.00 68 1007.6
20221205051023 29 314 3.0 6.0 0.00 0.00 0.00 67 1007.7
20221205050521 29 197 1.0 3.0 0.00 0.00 0.00 67 1007.3
20221205050020 29 186 0.0 2.0 0.00 0.00 0.00 67 1007.5
20221205045518 29 199 2.0 2.0 0.00 0.00 0.00 67 1007.6
20221205045017 29 197 1.0 1.0 0.00 0.00 0.00 66 1007.8
20221205044516 29 208 1.0 2.0 0.00 0.00 0.00 66 1007.7
20221205044015 29 198 2.0 2.0 0.00 0.00 0.00 66 1007.5
20221205043513 29 190 2.0 5.0 0.00 0.00 0.00 66 1007.4
20221205043011 29 206 1.0 1.0 0.00 0.00 0.00 66 1007.6
20221205042508 29 207 1.0 2.0 0.00 0.00 0.00 65 1007.9
20221205042006 30 201 2.0 2.0 0.00 0.00 0.00 65 1007.6
20221205041504 30 202 1.0 1.0 0.00 0.00 0.00 64 1007.8
20221205041004 30 201 3.0 3.0 0.00 0.00 0.00 64 1007.7
20221205040503 30 207 2.0 3.0 0.00 0.00 0.00 64 1007.7
20221205040001 30 202 3.0 3.0 0.00 0.00 0.00 64 1007.8
20221205035500 30 206 3.0 5.0 0.00 0.00 0.00 64 1007.8
20221205034959 30 200 2.0 3.0 0.00 0.00 0.00 64 1007.9
20221205034459 30 204 2.0 3.0 0.00 0.00 0.00 63 1008.0
20221205033958 30 212 2.0 5.0 0.00 0.00 0.00 62 1008.1
20221205033456 31 211 0.0 3.0 0.00 0.00 0.00 62 1008.2
20221205032955 31 232 2.0 5.0 0.00 0.00 0.00 61 1008.2
20221205032453 31 213 4.0 5.0 0.00 0.00 0.00 61 1008.2
20221205032229 31 215 3.0 5.0 0.00 0.00 0.00 61 1008.3
20221205032111 31 215 3.0 5.0 0.00 0.00 0.00 61 1008.3
20221205031951 31 215 3.0 5.0 0.00 0.00 0.00 61 1008.3
20221205031449 31 221 4.0 6.0 0.00 0.00 0.00 61 1008.0
20221205030949 31 205 2.0 3.0 0.00 0.00 0.00 61 1008.0
20221205030450 31 202 3.0 5.0 0.00 0.00 0.00 60 1008.0
20221205025949 31 228 3.0 3.0 0.00 0.00 0.00 60 1008.2
20221205025448 31 218 2.0 3.0 0.00 0.00 0.00 59 1008.0
20221205024948 31 207 3.0 3.0 0.00 0.00 0.00 60 1007.9
20221205024447 32 214 2.0 6.0 0.00 0.00 0.00 59 1008.0
20221205023946 32 209 2.0 6.0 0.00 0.00 0.00 59 1008.0
20221205023444 32 205 3.0 5.0 0.00 0.00 0.00 58 1008.0
20221205022942 32 205 2.0 5.0 0.00 0.00 0.00 58 1008.1
20221205022439 32 207 5.0 6.0 0.00 0.00 0.00 58 1008.2
20221205021937 31 208 2.0 3.0 0.00 0.00 0.00 58 1008.2
20221205021435 31 215 4.0 5.0 0.00 0.00 0.00 58 1008.2
20221205020934 32 204 2.0 5.0 0.00 0.00 0.00 57 1008.1
20221205020432 31 203 4.0 6.0 0.00 0.00 0.00 58 1008.4
20221205015929 31 220 3.0 5.0 0.00 0.00 0.00 58 1008.5
20221205015427 32 193 4.0 6.0 0.00 0.00 0.00 57 1008.6
20221205014928 31 211 5.0 8.0 0.00 0.00 0.00 57 1008.7
20221205014426 31 205 4.0 5.0 0.00 0.00 0.00 57 1008.4
20221205013925 31 213 7.0 9.0 0.00 0.00 0.00 56 1008.6
20221205013424 31 206 5.0 6.0 0.00 0.00 0.00 56 1008.5
20221205012925 31 222 5.0 9.0 0.00 0.00 0.00 55 1008.9
20221205012424 31 212 4.0 5.0 0.00 0.00 0.00 55 1008.9
20221205011922 31 213 3.0 7.0 0.00 0.00 0.00 55 1009.0
20221205011418 31 208 5.0 7.0 0.00 0.00 0.00 55 1008.8
20221205010918 31 211 5.0 6.0 0.00 0.00 0.00 54 1008.9
20221205010417 31 211 4.0 8.0 0.00 0.00 0.00 54 1009.0
20221205005914 31 219 5.0 9.0 0.00 0.00 0.00 54 1008.8
20221205005414 31 208 4.0 6.0 0.00 0.00 0.00 54 1009.0
20221205004912 31 204 5.0 7.0 0.00 0.00 0.00 53 1009.2
20221205004412 32 212 7.0 8.0 0.00 0.00 0.00 53 1009.1
20221205003910 32 207 4.0 7.0 0.00 0.00 0.00 53 1009.1
20221205003408 32 217 5.0 8.0 0.00 0.00 0.00 53 1009.5
20221205002908 32 210 5.0 9.0 0.00 0.00 0.00 52 1009.4
20221205002408 31 212 3.0 6.0 0.00 0.00 0.00 53 1009.4
20221205001907 31 201 4.0 5.0 0.00 0.00 0.00 54 1009.5
20221205001406 31 186 3.0 5.0 0.00 0.00 0.00 54 1009.8
20221205000903 31 191 4.0 6.0 0.00 0.00 0.00 54 1009.7
20221205000402 31 197 3.0 6.0 0.00 0.00 0.00 54 1010.0
20221204235902 31 210 6.0 7.0 0.00 0.00 0.00 55 1010.0
20221204235401 31 221 5.0 7.0 0.00 0.00 0.00 55 1009.9
20221204234900 31 182 3.0 5.0 0.00 0.00 0.00 55 1010.3
20221204234359 32 192 2.0 2.0 0.00 0.00 0.00 54 1010.4
20221204233857 32 199 6.0 8.0 0.00 0.00 0.00 53 1010.1
20221204233355 32 213 4.0 6.0 0.00 0.00 0.00 54 1010.1
20221204232853 32 191 6.0 7.0 0.00 0.00 0.00 54 1010.3
20221204232351 32 195 5.0 6.0 0.00 0.00 0.00 55 1010.3
20221204231849 32 212 3.0 5.0 0.00 0.00 0.00 55 1010.5
20221204231348 32 208 4.0 6.0 0.00 0.00 0.00 55 1010.5
20221204230846 32 226 5.0 7.0 0.00 0.00 0.00 54 1010.6
20221204230345 32 216 4.0 7.0 0.00 0.00 0.00 54 1010.7
20221204225845 32 204 2.0 5.0 0.00 0.00 0.00 55 1010.8
20221204225344 32 216 4.0 7.0 0.00 0.00 0.00 54 1010.9
20221204224840 33 183 3.0 5.0 0.00 0.00 0.00 54 1010.9
20221204224339 32 210 4.0 6.0 0.00 0.00 0.00 54 1011.0
20221204223838 32 201 6.0 8.0 0.00 0.00 0.00 54 1011.0
20221204223336 32 216 4.0 5.0 0.00 0.00 0.00 55 1011.3
20221204222834 33 225 4.0 6.0 0.00 0.00 0.00 54 1011.3
20221204222334 33 208 3.0 8.0 0.00 0.00 0.00 54 1011.3
20221204221830 33 208 3.0 7.0 0.00 0.00 0.00 54 1011.5
20221204221328 33 184 3.0 5.0 0.00 0.00 0.00 54 1011.6
20221204220806 33 179 4.0 5.0 0.00 0.00 0.00 54 1011.6
20221204220303 33 210 4.0 7.0 0.00 0.00 0.00 53 1011.7
20221204215800 33 203 5.0 7.0 0.00 0.00 0.00 52 1012.0
20221204215300 34 197 4.0 5.0 0.00 0.00 0.00 52 1011.9
20221204214759 34 231 4.0 8.0 0.00 0.00 0.00 51 1012.0
20221204214259 34 191 2.0 5.0 0.00 0.00 0.00 51 1012.1
20221204213758 34 201 3.0 8.0 0.00 0.00 0.00 51 1012.0
20221204213258 34 185 4.0 8.0 0.00 0.00 0.00 50 1012.1
20221204212757 34 199 3.0 5.0 0.00 0.00 0.00 49 1012.4
20221204212257 35 229 5.0 6.0 0.00 0.00 0.00 49 1012.3
20221204211755 34 195 2.0 3.0 0.00 0.00 0.00 49 1012.4
20221204211254 34 208 3.0 5.0 0.00 0.00 0.00 48 1012.6
20221204210752 34 194 3.0 5.0 0.00 0.00 0.00 49 1012.4
20221204210251 34 212 4.0 6.0 0.00 0.00 0.00 49 1012.5
20221204205750 34 201 5.0 6.0 0.00 0.00 0.00 49 1012.6
20221204205250 34 193 3.0 8.0 0.00 0.00 0.00 50 1012.6
20221204204748 33 205 2.0 6.0 0.00 0.00 0.00 50 1012.6
20221204204246 33 221 4.0 6.0 0.00 0.00 0.00 50 1012.6
20221204203745 33 208 5.0 7.0 0.00 0.00 0.00 49 1012.7
20221204203243 33 212 5.0 8.0 0.00 0.00 0.00 49 1012.9
20221204202742 33 213 3.0 7.0 0.00 0.00 0.00 48 1012.9
20221204202241 33 209 5.0 7.0 0.00 0.00 0.00 48 1012.9
20221204201740 34 199 3.0 5.0 0.00 0.00 0.00 49 1013.0
20221204201239 33 180 3.0 6.0 0.00 0.00 0.00 49 1013.3
20221204200738 32 220 3.0 8.0 0.00 0.00 0.00 49 1013.4
20221204200237 32 199 3.0 7.0 0.00 0.00 0.00 50 1013.5
20221204195736 32 223 6.0 7.0 0.00 0.00 0.00 48 1013.9
20221204195235 33 231 5.0 9.0 0.00 0.00 0.00 48 1013.9
20221204194734 32 197 4.0 7.0 0.00 0.00 0.00 48 1014.3
20221204194233 32 245 5.0 6.0 0.00 0.00 0.00 49 1014.3
20221204193733 32 168 4.0 7.0 0.00 0.00 0.00 50 1014.3
20221204193233 32 198 1.0 5.0 0.00 0.00 0.00 50 1014.5
20221204192733 31 206 3.0 8.0 0.00 0.00 0.00 50 1014.4
20221204192231 31 217 4.0 8.0 0.00 0.00 0.00 50 1014.7
20221204191731 31 194 7.0 8.0 0.00 0.00 0.00 50 1014.6
20221204191231 30 225 5.0 8.0 0.00 0.00 0.00 50 1014.7
20221204190729 30 199 5.0 8.0 0.00 0.00 0.00 51 1015.0
20221204190229 30 228 4.0 7.0 0.00 0.00 0.00 51 1015.3
20221204185728 30 207 2.0 3.0 0.00 0.00 0.00 52 1015.4
20221204185228 30 219 4.0 7.0 0.00 0.00 0.00 51 1015.5
20221204184728 30 236 4.0 7.0 0.00 0.00 0.00 53 1015.6
20221204184227 29 252 4.0 6.0 0.00 0.00 0.00 53 1015.8
20221204183726 29 202 5.0 7.0 0.00 0.00 0.00 53 1015.7
20221204183224 28 238 8.0 9.0 0.00 0.00 0.00 53 1015.9
20221204182722 29 223 4.0 9.0 0.00 0.00 0.00 53 1016.1
20221204182221 29 219 3.0 7.0 0.00 0.00 0.00 55 1016.1
20221204181720 28 217 2.0 8.0 0.00 0.00 0.00 55 1016.2
20221204181220 28 215 4.0 8.0 0.00 0.00 0.00 54 1016.3
20221204180720 28 253 3.0 5.0 0.00 0.00 0.00 55 1016.2
20221204180219 28 211 5.0 7.0 0.00 0.00 0.00 55 1016.2
20221204175717 28 194 4.0 8.0 0.00 0.00 0.00 55 1016.5
20221204175217 28 262 6.0 9.0 0.00 0.00 0.00 55 1016.7
20221204174715 27 221 3.0 7.0 0.00 0.00 0.00 55 1016.7
20221204174215 27 213 6.0 9.0 0.00 0.00 0.00 56 1016.7
20221204173714 27 217 5.0 9.0 0.00 0.00 0.00 57 1016.7
20221204173212 27 214 5.0 7.0 0.00 0.00 0.00 57 1017.0
20221204172713 27 202 5.0 8.0 0.00 0.00 0.00 57 1017.0
20221204172210 26 223 5.0 8.0 0.00 0.00 0.00 57 1017.1
20221204171708 26 213 3.0 6.0 0.00 0.00 0.00 58 1017.2
20221204171207 26 217 3.0 11.0 0.00 0.00 0.00 58 1017.3
20221204170707 25 270 6.0 8.0 0.00 0.00 0.00 59 1017.4
20221204170206 25 228 5.0 5.0 0.00 0.00 0.00 60 1017.7
20221204165706 25 203 5.0 8.0 0.00 0.00 0.00 60 1017.7
20221204165204 25 210 5.0 6.0 0.00 0.00 0.00 62 1017.7
20221204164703 24 226 3.0 6.0 0.00 0.00 0.00 64 1017.8
20221204164202 24 235 3.0 6.0 0.00 0.00 0.00 66 1017.9
20221204163701 23 246 5.0 7.0 0.00 0.00 0.00 67 1018.1
20221204163201 23 219 4.0 5.0 0.00 0.00 0.00 68 1018.1
20221204162700 22 208 5.0 7.0 0.00 0.00 0.00 68 1018.2
20221204162159 22 213 3.0 8.0 0.00 0.00 0.00 69 1018.1
20221204161658 22 258 5.0 6.0 0.00 0.00 0.00 69 1018.3
20221204161157 22 205 5.0 6.0 0.00 0.00 0.00 69 1018.3
20221204160655 21 215 3.0 8.0 0.00 0.00 0.00 70 1018.3
20221204160154 21 205 5.0 7.0 0.00 0.00 0.00 71 1018.2
20221204155652 20 222 4.0 7.0 0.00 0.00 0.00 72 1018.3
20221204155151 20 219 4.0 7.0 0.00 0.00 0.00 73 1018.5
20221204154649 20 214 3.0 3.0 0.00 0.00 0.00 73 1018.5
20221204154148 20 232 5.0 6.0 0.00 0.00 0.00 74 1018.7
20221204153649 19 218 3.0 6.0 0.00 0.00 0.00 75 1018.6
20221204153148 19 221 3.0 6.0 0.00 0.00 0.00 76 1018.7
20221204152647 18 204 3.0 5.0 0.00 0.00 0.00 77 1018.6
20221204152147 18 233 3.0 5.0 0.00 0.00 0.00 79 1018.5
20221204151645 17 214 2.0 7.0 0.00 0.00 0.00 80 1018.4
20221204151144 16 205 5.0 6.0 0.00 0.00 0.00 81 1018.6
20221204150644 16 210 4.0 5.0 0.00 0.00 0.00 82 1018.5
20221204150142 16 214 2.0 3.0 0.00 0.00 0.00 83 1018.8
20221204145642 16 210 2.0 3.0 0.00 0.00 0.00 83 1018.8
20221204145140 16 212 3.0 3.0 0.00 0.00 0.00 83 1018.6
20221204144639 16 259 4.0 6.0 0.00 0.00 0.00 84 1018.7
20221204144139 15 224 4.0 5.0 0.00 0.00 0.00 85 1018.6
20221204143637 14 213 2.0 3.0 0.00 0.00 0.00 86 1018.6
20221204143135 14 214 3.0 3.0 0.00 0.00 0.00 87 1018.5
20221204142633 13 208 2.0 3.0 0.00 0.00 0.00 87 1018.6
20221204142133 13 199 3.0 5.0 0.00 0.00 0.00 87 1018.5
20221204141630 12 201 3.0 5.0 0.00 0.00 0.00 88 1018.8
20221204141129 11 199 2.0 3.0 0.00 0.00 0.00 89 1018.5
20221204140627 11 197 1.0 1.0 0.00 0.00 0.00 90 1018.7
20221204140127 10 196 1.0 1.0 0.00 0.00 0.00 89 1018.4
20221204135625 10 197 1.0 2.0 0.00 0.00 0.00 90 1018.5
20221204135125 9 196 1.0 2.0 0.00 0.00 0.00 90 1018.5
20221204134623 8 196 2.0 2.0 0.00 0.00 0.00 91 1018.6
20221204134121 8 196 1.0 2.0 0.00 0.00 0.00 89 1018.7
20221204133619 10 195 1.0 2.0 0.00 0.00 0.00 89 1018.9
20221204133117 10 195 1.0 2.0 0.00 0.00 0.00 90 1018.8
20221204132615 10 195 2.0 2.0 0.00 0.00 0.00 89 1019.1
20221204132114 10 195 2.0 2.0 0.00 0.00 0.00 89 1019.2
20221204131614 10 196 2.0 2.0 0.00 0.00 0.00 90 1019.3
20221204131113 10 196 1.0 1.0 0.00 0.00 0.00 89 1019.3
20221204130612 10 196 1.0 2.0 0.00 0.00 0.00 90 1019.2
20221204130111 9 196 1.0 2.0 0.00 0.00 0.00 90 1019.4
20221204125611 10 195 1.0 2.0 0.00 0.00 0.00 89 1019.3
20221204125110 10 195 1.0 1.0 0.00 0.00 0.00 89 1019.5
20221204124610 10 195 1.0 1.0 0.00 0.00 0.00 90 1019.5
20221204124107 9 195 1.0 2.0 0.00 0.00 0.00 90 1019.4
20221204123605 9 195 0.0 0.0 0.00 0.00 0.00 89 1019.4
20221204123105 8 195 1.0 1.0 0.00 0.00 0.00 90 1019.6
20221204122605 8 194 1.0 1.0 0.00 0.00 0.00 89 1019.6
20221204122105 8 194 1.0 2.0 0.00 0.00 0.00 89 1019.7
20221204121605 8 194 1.0 2.0 0.00 0.00 0.00 90 1019.8
20221204121104 7 194 1.0 1.0 0.00 0.00 0.00 90 1019.9
20221204120604 7 194 0.0 0.0 0.00 0.00 0.00 90 1020.0
20221204120103 7 194 1.0 1.0 0.00 0.00 0.00 89 1020.0